When you browse on this site, cookies collect data to enhance your experience and personalize the content and advertising you see.
Visit our Privacy Policy to learn more. By continuing to use the site, you agree to this use of cookies and data.
  • In Czech Republic
  • List of Countries
  • For 7 days
  • Water Temperature
  • Weather Map
  • Weather Widgets
  • user-avatar
    Login

    Hourly Weather Klagenfurt

    Today, 8 December, Sunday

    Time Temperature Precipitation Wind Pressure Humidity
    00:00 0°C° 0 mm 0 mps 690 mmHg 82%
    01:00 +1°C° 0 mm 1 mps 690 mmHg 82%
    02:00 0°C° 0 mm 0 mps 690 mmHg 82%
    03:00 0°C° 0 mm 0 mps 690 mmHg 82%
    04:00 0°C° 0 mm 0 mps 689 mmHg 82%
    05:00 0°C° 0 mm 0 mps 689 mmHg 83%
    06:00 0°C° 0 mm 0 mps 690 mmHg 83%
    07:00 +1°C° 0 mm 1 mps 690 mmHg 85%
    08:00 +2°C° 0 mm 1 mps 690 mmHg 83%
    09:00 +3°C° 0 mm 1 mps 690 mmHg 80%
    10:00 +3°C° 0 mm 0 mps 690 mmHg 77%
    11:00 +5°C° 0 mm 1 mps 689 mmHg 76%
    12:00 +6°C° 0 mm 1 mps 689 mmHg 75%
    13:00 +7°C° 0 mm 1 mps 689 mmHg 74%
    14:00 +5°C° 0 mm 1 mps 688 mmHg 79%
    15:00 +4°C° 0 mm 1 mps 688 mmHg 85%
    16:00 +3°C° 0 mm 1 mps 687 mmHg 91%
    17:00 +3°C° 0 mm 1 mps 687 mmHg 92%
    18:00 +2°C° 0 mm 1 mps 687 mmHg 92%
    19:00 +1°C° 0 mm 1 mps 687 mmHg 93%
    20:00 +1°C° 0 mm 1 mps 686 mmHg 94%
    21:00 +1°C° 0 mm 1 mps 686 mmHg 94%
    22:00 +1°C° 0 mm 1 mps 686 mmHg 94%
    23:00 +2°C° 0 mm 1 mps 685 mmHg 94%

    Tomorrow, 9 December, Monday

    Time Temperature Precipitation Wind Pressure Humidity
    00:00 +2°C° 0 mm 1 mps 685 mmHg 94%
    01:00 +2°C° 0 mm 1 mps 685 mmHg 94%
    02:00 +2°C° 0 mm 1 mps 684 mmHg 94%
    03:00 +3°C° 0 mm 1 mps 684 mmHg 94%
    04:00 +2°C° 0 mm 0 mps 683 mmHg 95%
    05:00 +2°C° 0.1 mm 0 mps 683 mmHg 95%
    06:00 +2°C° 0.1 mm 0 mps 683 mmHg 96%
    07:00 +2°C° 0.1 mm 0 mps 683 mmHg 96%
    08:00 +2°C° 0.4 mm 0 mps 683 mmHg 96%
    09:00 +2°C° 0.4 mm 0 mps 683 mmHg 96%
    10:00 +2°C° 0.4 mm 0 mps 683 mmHg 96%
    11:00 +3°C° 0.8 mm 0 mps 682 mmHg 97%
    12:00 +3°C° 0.8 mm 0 mps 682 mmHg 97%
    13:00 +4°C° 0.8 mm 1 mps 681 mmHg 97%
    14:00 +4°C° 1.4 mm 1 mps 681 mmHg 97%
    15:00 +3°C° 1.4 mm 1 mps 681 mmHg 98%
    16:00 +3°C° 1.4 mm 1 mps 681 mmHg 98%
    17:00 +3°C° 0.8 mm 1 mps 681 mmHg 98%
    18:00 +3°C° 0.8 mm 1 mps 682 mmHg 97%
    19:00 +3°C° 0.8 mm 1 mps 682 mmHg 97%
    20:00 +3°C° 0.1 mm 1 mps 683 mmHg 97%
    21:00 +2°C° 0.1 mm 1 mps 683 mmHg 96%
    22:00 +2°C° 0.1 mm 1 mps 684 mmHg 96%
    23:00 +2°C° 0 mm 1 mps 684 mmHg 95%

    Day after tomorrow, 10 December, Tuesday

    Time Temperature Precipitation Wind Pressure Humidity
    00:00 +2°C° 0 mm 1 mps 684 mmHg 95%
    01:00 +1°C° 0 mm 1 mps 685 mmHg 94%
    02:00 +1°C° 0 mm 1 mps 685 mmHg 93%
    03:00 +1°C° 0 mm 1 mps 685 mmHg 92%
    04:00 0°C° 0 mm 1 mps 686 mmHg 91%
    05:00 0°C° 0 mm 1 mps 686 mmHg 90%
    06:00 0°C° 0 mm 1 mps 687 mmHg 88%
    07:00 0°C° 0 mm 1 mps 688 mmHg 87%
    08:00 -1°C° 0 mm 2 mps 689 mmHg 80%
    09:00 +1°C° 0 mm 2 mps 690 mmHg 73%
    10:00 +2°C° 0 mm 2 mps 691 mmHg 66%
    11:00 +2°C° 0 mm 2 mps 691 mmHg 61%
    12:00 +3°C° 0 mm 2 mps 692 mmHg 57%
    13:00 +3°C° 0 mm 2 mps 692 mmHg 53%
    14:00 +2°C° 0 mm 2 mps 692 mmHg 58%
    15:00 +2°C° 0 mm 1 mps 692 mmHg 63%
    16:00 +1°C° 0 mm 1 mps 692 mmHg 67%
    17:00 0°C° 0 mm 1 mps 692 mmHg 70%
    18:00 -1°C° 0 mm 1 mps 692 mmHg 72%
    19:00 -1°C° 0 mm 1 mps 693 mmHg 74%
    20:00 -2°C° 0 mm 1 mps 693 mmHg 75%
    21:00 -2°C° 0 mm 1 mps 693 mmHg 76%
    22:00 -2°C° 0 mm 1 mps 693 mmHg 77%
    23:00 -2°C° 0 mm 1 mps 692 mmHg 77%

    11 December, Wednesday

    Time Temperature Precipitation Wind Pressure Humidity
    00:00 -3°C° 0 mm 0 mps 692 mmHg 77%
    01:00 -4°C° 0 mm 0 mps 692 mmHg 76%
    02:00 -4°C° 0 mm 0 mps 691 mmHg 76%
    03:00 -4°C° 0 mm 0 mps 691 mmHg 76%
    04:00 -4°C° 0 mm 0 mps 690 mmHg 76%
    05:00 -4°C° 0 mm 0 mps 690 mmHg 76%
    06:00 -4°C° 0 mm 0 mps 689 mmHg 77%
    07:00 -4°C° 0 mm 0 mps 689 mmHg 77%
    08:00 -3°C° 0 mm 0 mps 689 mmHg 74%
    09:00 -2°C° 0 mm 0 mps 689 mmHg 71%
    10:00 -2°C° 0 mm 0 mps 689 mmHg 69%
    11:00 -1°C° 0 mm 0 mps 688 mmHg 66%
    12:00 0°C° 0 mm 0 mps 687 mmHg 64%
    13:00 0°C° 0 mm 0 mps 687 mmHg 61%
    14:00 0°C° 0 mm 0 mps 686 mmHg 66%
    15:00 -1°C° 0 mm 0 mps 685 mmHg 71%
    16:00 -2°C° 0 mm 0 mps 685 mmHg 75%
    17:00 -2°C° 0 mm 0 mps 684 mmHg 75%
    18:00 -2°C° 0 mm 0 mps 684 mmHg 75%
    19:00 -3°C° 0 mm 0 mps 684 mmHg 76%
    20:00 -3°C° 0 mm 0 mps 684 mmHg 73%
    21:00 -3°C° 0 mm 0 mps 684 mmHg 71%
    22:00 -2°C° 0 mm 0 mps 684 mmHg 69%
    23:00 -3°C° 0 mm 0 mps 683 mmHg 70%

    12 December, Thursday

    Time Temperature Precipitation Wind Pressure Humidity
    00:00 -3°C° 0 mm 0 mps 683 mmHg 71%
    01:00 -3°C° 0 mm 0 mps 683 mmHg 71%
    02:00 -3°C° 0 mm 0 mps 682 mmHg 74%
    03:00 -3°C° 0 mm 0 mps 682 mmHg 77%
    04:00 -3°C° 0 mm 0 mps 682 mmHg 79%
    05:00 -3°C° 0 mm 0 mps 682 mmHg 81%
    06:00 -4°C° 0 mm 0 mps 682 mmHg 83%
    07:00 -4°C° 0 mm 0 mps 682 mmHg 85%
    08:00 -3°C° 0 mm 0 mps 682 mmHg 80%
    09:00 -2°C° 0 mm 0 mps 683 mmHg 75%
    10:00 -1°C° 0 mm 0 mps 683 mmHg 71%
    11:00 -1°C° 0.4 mm 0 mps 683 mmHg 74%
    12:00 -1°C° 0.4 mm 0 mps 683 mmHg 77%
    13:00 0°C° 0.4 mm 1 mps 683 mmHg 80%
    14:00 -1°C° 0.5 mm 0 mps 683 mmHg 84%
    15:00 -1°C° 0.5 mm 0 mps 683 mmHg 89%
    16:00 -1°C° 0.5 mm 0 mps 683 mmHg 94%
    17:00 -2°C° 0 mm 0 mps 683 mmHg 94%
    18:00 -2°C° 0 mm 0 mps 683 mmHg 94%
    19:00 -3°C° 0 mm 0 mps 684 mmHg 94%
    20:00 -3°C° 0 mm 0 mps 684 mmHg 94%
    21:00 -3°C° 0 mm 0 mps 683 mmHg 93%
    22:00 -3°C° 0 mm 0 mps 683 mmHg 92%
    23:00 -3°C° 0 mm 0 mps 683 mmHg 93%

    13 December, Friday

    Time Temperature Precipitation Wind Pressure Humidity
    00:00 -2°C° 0 mm 1 mps 682 mmHg 94%
    01:00 -2°C° 0 mm 1 mps 682 mmHg 94%
    02:00 -2°C° 0 mm 1 mps 681 mmHg 94%
    03:00 -2°C° 0 mm 1 mps 680 mmHg 94%
    04:00 -2°C° 0 mm 1 mps 679 mmHg 93%
    05:00 -2°C° 0 mm 1 mps 678 mmHg 93%
    06:00 -4°C° 0 mm 2 mps 678 mmHg 92%
    07:00 -3°C° 0 mm 2 mps 677 mmHg 92%
    08:00 -3°C° 0 mm 2 mps 676 mmHg 88%
    09:00 -2°C° 0 mm 2 mps 676 mmHg 84%
    10:00 -1°C° 0 mm 2 mps 675 mmHg 80%
    11:00 -1°C° 0.1 mm 2 mps 674 mmHg 81%
    12:00 -1°C° 0.1 mm 2 mps 674 mmHg 82%
    13:00 -1°C° 0.1 mm 2 mps 673 mmHg 82%
    14:00 +1°C° 0.3 mm 1 mps 673 mmHg 86%
    15:00 +1°C° 0.3 mm 1 mps 672 mmHg 90%
    16:00 0°C° 0.3 mm 1 mps 672 mmHg 94%
    17:00 0°C° 0.2 mm 1 mps 673 mmHg 92%
    18:00 0°C° 0.2 mm 1 mps 673 mmHg 91%
    19:00 0°C° 0.2 mm 1 mps 673 mmHg 90%
    20:00 -1°C° 0 mm 1 mps 674 mmHg 89%
    21:00 -1°C° 0 mm 1 mps 675 mmHg 88%
    22:00 -2°C° 0 mm 1 mps 675 mmHg 87%
    23:00 -2°C° 0 mm 1 mps 676 mmHg 85%
    Show more